SCP
1 1 2 2 2 2 2 2 1 1 1 1 1 1 1 1 1 1 2 2 2 2 2 2 1 1 1 1 1 1 1 0 0 0 0 0 0 0 1 1 0 0 0
1 1 1 1 1 1 1 1 1 1 1 1 1 0 0 1 1 1 1 2 2 2 2 2 1 1 1 1 1 1 1 1 0 0 0 0 0 0 0 1 1 1 1
1 1 1 1 1 1 1 1 1 1 1 1 0 0 0 0 0 1 1 1 1 1 2 2 2 1 1 1 1 1 1 1 1 1 0 0 0 0 0 0 1 1 1
1 1 1 1 1 1 1 1 1 1 1 1 0 0 0 0 0 0 1 1 1 1 1 1 2 2 1 1 1 1 1 1 1 1 1 1 0 0 0 0 1 1 1
1 1 1 1 1 1 1 1 1 1 0 0 0 0 1 1 1 1 1 1 1 1 1 1 2 2 1 1 1 1 1 1 1 1 1 1 1 1 0 1 1 1 1
0 1 1 1 1 0 1 1 0 0 0 0 0 0 0 1 1 1 1 1 1 1 1 1 2 2 1 1 1 1 1 1 1 1 1 1 1 1 1 1 1 1 1
0 0 0 0 0 0 0 0 0 0 0 0 0 0 0 0 1 1 1 1 1 1 1 1 1 2 1 1 1 1 1 1 1 1 1 1 1 1 1 1 1 1 1
0 0 0 0 0 0 0 0 0 0 0 0 0 0 0 0 0 0 1 1 1 2 2 2 1 1 1 1 1 1 1 1 1 1 1 1 2 2 2 1 1 1 1
1 1 0 0 0 0 0 0 0 0 0 0 0 0 0 0 0 0 0 1 1 1 2 1 1 1 1 1 1 1 1 1 1 1 2 2 2 2 2 1 1 1 1
1 1 1 0 0 0 0 0 0 0 0 0 0 0 0 0 0 0 0 0 1 1 1 1 1 1 1 1 1 1 1 1 1 1 2 2 1 1 1 1 1 1 1
1 1 1 1 0 0 0 0 0 0 0 0 0 0 0 0 0 0 0 0 0 1 1 1 1 1 1 1 1 1 1 1 1 1 1 1 1 1 1 1 1 1 1
2 1 1 1 1 0 0 0 0 0 0 0 0 0 0 0 0 0 0 0 0 1 1 1 1 1 1 1 1 1 1 1 1 1 1 1 1 1 1 1 1 1 1
2 2 2 1 1 0 0 0 0 0 0 0 0 0 0 0 0 0 0 0 0 0 1 1 1 1 1 1 1 0 0 0 0 0 0 0 0 0 0 0 1 1 1
3 3 2 1 1 0 0 0 0 0 0 0 0 0 0 0 0 0 0 0 0 0 1 1 1 2 2 1 1 0 0 0 0 0 0 0 0 0 0 0 0 0 0
4 3 2 2 1 1 0 0 0 0 0 0 0 0 0 0 0 0 0 0 0 0 0 1 1 2 1 1 0 0 0 0 0 0 0 0 0 0 0 0 0 0 0
3 3 3 2 1 1 1 1 0 0 0 0 0 0 0 0 0 0 0 0 0 0 0 1 1 1 1 1 0 0 0 0 0 0 0 0 0 0 0 0 0 0 0
2 2 3 2 2 1 1 1 0 0 0 0 0 0 0 0 0 0 0 0 0 0 1 1 1 1 1 0 0 0 0 0 0 0 0 0 0 0 0 0 0 0 0
1 1 2 2 2 2 1 1 1 0 0 0 0 0 0 0 0 0 0 0 0 0 0 1 1 0 0 0 0 0 0 0 0 0 0 0 0 0 0 0 0 0 0
0 0 1 1 1 1 1 1 1 0 0 0 0 0 0 0 0 0 0 0 0 0 0 0 0 0 0 0 0 0 0 0 0 0 0 0 0 0 0 0 0 0 0
0 0 0 0 1 1 1 1 1 1 0 0 0 0 0 0 0 0 0 0 0 0 0 0 0 0 0 0 0 0 0 0 0 0 0 0 0 0 0 0 0 0 0
0 0 0 0 0 0 0 1 1 1 1 0 0 0 0 0 0 0 0 0 0 0 0 0 0 0 0 0 0 0 0 0 0 0 0 0 0 0 0 0 0 0 0
0 0 0 0 0 0 0 0 0 0 1 1 0 0 0 0 0 0 0 0 0 0 0 0 0 0 0 0 0 0 0 0 0 0 0 0 0 0 0 0 0 0 0
0 0 0 0 0 0 0 0 0 0 0 0 0 0 0 0 0 0 0 0 0 0 0 0 0 0 0 -0 -0 -0 0 0 0 0 0 0 0 0 0 0 0 0 0
0 0 0 0 0 0 0 0 0 0 0 0 0 0 0 0 0 0 0 0 0 0 0 0 0 -0 -0 -0 -0 -0 0 0 0 0 0 0 0 0 0 0 0 0 0
0 0 0 0 0 0 0 0 0 0 0 0 0 0 0 0 0 0 0 0 0 0 0 0 0 -0 -0 -0 0 0 0 0 0 0 0 0 0 0 0 0 -0 -0 0
0 0 0 0 0 0 0 0 0 0 0 0 0 0 0 0 0 0 0 0 0 0 0 0 0 0 0 0 0 0 0 0 0 0 0 0 0 0 0 0 -0 -0 0
Wind_Speed
3 4 2 2 3 3 1 1 1 3 3 4 5 6 6 6 5 5 2 12 16 16 17 17 17 18 17 16 17 17 17 17 17 17 18 19 19 19 18 17 16 15 15
3 3 3 3 4 3 2 2 4 4 4 4 5 5 5 6 5 6 6 7 15 17 17 17 17 17 18 18 18 18 18 18 17 17 18 17 18 19 19 19 19 18 18
3 3 3 4 4 3 3 3 4 4 5 5 5 6 6 8 9 9 8 6 7 15 19 19 18 17 18 19 19 18 18 18 17 17 17 17 17 18 18 19 19 19 19
3 3 3 3 3 3 3 4 4 5 5 5 5 6 6 6 9 10 9 7 6 7 14 20 19 17 18 19 19 18 18 18 17 17 18 18 18 18 18 19 20 19 19
2 2 3 3 4 3 4 5 4 4 5 5 6 6 6 6 7 9 9 10 8 7 6 11 18 18 19 20 20 19 18 19 18 17 18 19 19 19 20 20 21 20 19
1 0 2 2 2 2 3 2 3 4 5 5 8 8 6 6 6 7 8 8 8 10 9 8 8 12 18 18 18 19 19 19 18 18 18 19 21 22 22 21 21 21 20
1 0 3 3 4 3 4 5 5 6 5 5 6 7 7 9 9 8 8 8 8 9 10 9 7 6 7 16 16 16 19 19 19 19 19 20 21 21 21 21 21 21 21
2 3 2 3 4 4 4 5 5 4 5 5 5 7 7 6 6 7 7 7 7 6 7 9 8 7 6 5 10 17 17 18 18 18 19 19 19 18 19 21 21 21 21
2 1 2 3 4 4 4 4 5 6 5 5 5 5 5 5 6 5 5 3 3 3 4 5 8 9 9 7 6 12 16 17 18 17 17 16 15 15 17 19 21 21 21
3 2 2 3 3 3 5 6 5 4 5 5 5 5 7 8 8 7 6 5 4 4 5 5 6 8 9 7 7 7 12 15 15 16 15 14 13 14 16 18 20 21 21
5 5 5 3 3 4 5 5 5 5 4 5 6 6 7 8 8 7 7 5 4 4 5 6 6 5 7 6 5 6 10 11 12 12 10 9 10 11 13 17 20 21 22
5 7 6 4 3 4 4 4 5 7 5 6 6 6 7 7 7 6 7 6 5 6 6 6 6 5 5 4 4 8 8 7 5 4 3 2 3 3 5 8 12 15 17
3 4 4 3 2 4 4 5 6 7 6 6 6 6 6 7 7 7 7 6 6 5 3 2 3 2 3 7 8 15 13 12 10 8 7 6 6 6 7 6 5 3 2
2 2 3 3 4 5 6 5 5 7 5 4 7 8 7 7 6 6 7 7 6 5 3 2 1 4 6 7 10 13 10 12 11 10 10 10 10 11 12 13 13 13 12
7 6 2 3 4 5 6 6 6 6 5 6 7 8 7 7 7 7 7 7 6 6 4 3 1 4 6 7 7 9 9 11 13 12 12 12 13 14 15 15 16 16 15
7 8 8 6 6 6 6 6 7 6 5 5 5 7 7 6 6 5 6 7 7 6 4 2 2 4 7 8 11 10 11 15 14 14 14 14 15 16 16 16 16 16 15
5 7 7 7 8 8 7 7 7 7 6 5 5 6 6 6 4 4 4 5 6 6 5 2 2 6 9 10 9 9 9 9 10 15 16 17 17 17 16 16 16 16 16
6 5 6 7 8 10 9 8 8 7 6 5 5 6 7 6 5 4 3 5 6 6 5 7 5 5 8 9 10 10 9 9 9 15 17 18 18 17 17 16 17 16 16
10 8 5 7 8 9 10 10 9 7 6 5 4 5 5 5 4 3 3 5 5 4 4 8 7 6 5 7 10 10 10 8 9 12 16 16 17 17 16 16 16 15 14
10 10 8 7 8 9 10 11 10 8 6 5 4 4 4 3 3 4 2 4 4 1 5 8 9 8 6 7 7 9 8 6 6 9 10 11 15 17 16 15 15 15 13
12 11 9 8 6 7 9 10 10 10 7 5 4 2 2 6 7 5 3 3 3 3 6 8 9 8 6 6 5 5 8 7 7 7 8 8 8 8 8 11 14 14 13
11 10 9 8 7 7 10 13 12 9 6 5 3 3 6 6 8 10 10 9 7 6 7 8 8 8 6 5 3 5 6 8 6 5 6 6 6 7 6 5 7 10 11
10 10 8 7 7 6 7 11 12 9 6 5 3 4 5 7 7 7 7 8 9 9 9 8 9 7 6 5 5 6 6 7 5 6 7 8 7 7 5 6 8 8 9
8 8 7 7 6 6 6 8 9 7 7 5 4 5 7 8 6 7 6 7 7 5 6 6 7 6 5 6 7 5 7 7 5 5 7 7 7 7 6 4 8 9 9
8 7 7 8 7 4 2 5 5 3 6 6 5 6 8 8 9 8 7 8 8 7 9 11 10 10 9 7 6 6 7 6 5 4 5 5 6 7 5 3 5 8 7
8 8 8 8 7 4 4 5 7 2 4 4 3 5 9 11 10 8 7 7 8 7 8 8 7 7 7 8 9 4 2 4 6 4 3 4 7 5 4 3 4 4 4
Wind_Direction
240 269 282 279 273 272 221 200 264 271 267 269 268 273 284 289 300 298 261 195 195 200 205 211 214 220 222 225 225 223 225 223 218 218 218 219 217 215 215 215 214 211 212
219 246 265 264 260 279 290 256 246 244 246 248 256 267 277 279 269 255 249 233 210 206 208 211 216 223 223 221 223 223 222 223 221 218 219 219 216 216 217 216 215 213 211
228 240 253 260 266 271 262 253 248 249 258 260 252 244 247 252 254 254 245 236 224 214 211 211 213 218 223 221 219 220 217 218 221 216 214 215 215 216 218 218 219 217 214
213 237 250 250 246 241 236 243 245 251 254 259 258 245 237 236 242 244 245 238 234 238 219 214 214 215 221 220 216 216 214 214 216 214 211 211 214 217 219 220 221 220 216
225 217 234 226 222 221 220 234 225 234 257 263 266 258 243 239 241 244 241 237 226 222 232 210 211 215 219 221 215 213 213 214 214 213 211 210 213 218 221 221 221 220 217
255 53 301 292 279 284 269 257 271 247 249 259 270 273 265 259 249 242 243 239 224 219 220 221 212 220 220 220 214 210 212 214 213 213 214 214 214 217 220 220 219 219 217
288 59 284 335 322 298 323 328 312 300 291 279 276 274 257 251 245 234 232 233 225 215 215 211 215 219 216 218 215 210 213 216 214 213 216 219 220 219 220 220 220 218 216
249 286 342 339 313 327 306 279 278 278 286 293 295 296 290 276 256 247 234 224 226 221 213 205 207 214 216 208 209 210 212 216 219 218 220 222 223 221 219 220 221 220 219
214 290 340 312 313 304 300 326 306 287 286 291 285 287 297 295 308 306 322 304 237 224 225 218 208 211 214 217 211 209 211 214 220 223 227 228 226 226 225 225 224 222 220
212 204 227 259 274 290 298 286 289 322 308 294 285 276 275 285 291 292 290 279 254 235 229 234 227 211 204 206 207 197 206 218 223 226 229 232 231 228 227 228 227 225 221
212 205 203 212 248 266 271 288 307 294 287 287 292 298 300 297 287 277 280 278 277 248 225 217 221 214 201 202 201 190 190 204 217 226 230 238 243 237 231 229 229 229 226
202 197 188 186 228 261 288 301 294 289 280 277 279 280 282 285 287 283 277 270 267 264 236 213 208 210 197 171 132 108 118 122 139 145 148 203 244 246 238 228 228 231 231
232 182 159 150 243 277 281 274 275 275 274 275 280 281 282 281 286 292 293 285 268 265 263 218 194 164 129 108 104 100 93 98 101 103 100 91 81 77 74 74 83 109 175
312 70 126 188 232 251 265 270 278 277 283 299 295 287 282 278 273 272 276 284 285 277 257 242 115 96 94 102 118 108 102 102 102 99 93 87 82 79 76 73 72 73 72
336 335 279 227 240 249 256 267 272 273 283 285 284 284 282 280 273 267 263 259 258 270 269 230 141 93 105 110 121 106 102 99 96 92 91 88 85 82 79 76 74 72 71
344 330 314 289 266 259 256 256 266 268 278 279 280 279 281 279 273 267 260 256 247 239 244 208 148 132 122 112 99 97 98 97 93 93 91 90 87 84 82 80 78 77 75
324 322 306 289 276 266 259 256 260 268 270 284 295 295 302 304 304 294 277 261 251 233 222 160 93 117 117 114 109 108 107 101 99 97 96 93 91 88 85 83 81 78 76
298 299 306 294 280 273 265 260 261 268 273 282 290 296 305 316 321 314 312 287 264 235 190 149 130 122 119 117 117 114 112 109 106 104 103 100 96 91 88 85 82 78 74
298 301 304 308 300 285 275 268 260 257 259 266 280 293 303 313 319 331 326 310 287 249 171 142 135 126 121 122 116 110 111 114 113 114 105 100 99 95 90 86 83 79 75
276 284 291 298 305 303 286 272 264 254 251 255 260 269 285 319 348 339 350 331 311 242 141 134 132 131 128 122 122 125 125 130 127 118 104 106 103 94 90 88 85 81 74
263 261 263 268 287 304 296 292 276 258 245 244 246 242 81 83 67 41 45 20 10 82 119 126 129 130 131 131 134 136 133 133 124 129 129 132 124 110 97 86 82 81 77
255 252 250 254 259 278 310 313 295 269 253 243 221 145 140 133 102 78 66 54 54 89 113 122 129 134 129 128 127 140 145 142 141 161 144 133 117 103 95 89 94 90 86
250 247 247 254 256 255 274 284 278 271 256 235 188 170 177 140 136 117 97 77 63 77 99 120 131 133 140 161 171 178 162 145 135 149 131 116 108 103 108 121 134 124 114
251 247 249 255 266 277 278 257 254 262 263 235 184 162 138 150 151 146 131 100 76 71 116 121 124 129 148 185 202 180 140 125 127 130 127 125 128 126 126 139 159 151 140
256 253 252 245 249 252 255 237 219 257 266 245 196 159 144 143 151 150 127 114 103 90 94 111 120 128 131 128 137 127 129 135 142 142 139 129 137 133 137 147 174 179 167
269 254 246 240 241 215 157 184 181 196 274 278 230 164 151 142 151 149 137 132 126 127 128 123 121 122 109 84 71 82 134 158 149 135 125 125 142 140 145 162 167 181 199